{"data":{"norad_id":58654,"epoch":"2026-09-16T01:04:58.519200Z","epoch_age_seconds":399325,"freshness":"STALE","line1":"1 58654U 23207A   26259.04512175 -.00000044  00000+0  00000+0 0  9998","line2":"2 58654  55.8384  59.2430 0000622  45.6359 314.3812  1.86229765 18533","mean_motion":1.86229765,"eccentricity":6.22e-5,"inclination_deg":55.8384,"raan_deg":59.243,"arg_perigee_deg":45.6359,"mean_anomaly_deg":314.3812,"bstar":0,"rev_number":1853,"period_min":773.23837035396,"perigee_km":21526.439166135,"apogee_km":21529.91071134,"semimajor_km":27906.311938738,"source":"CELESTRAK","updated_at":"2026-09-20T09:00:46.715327Z"}}